time,lat,lon
20070724T12:52:29 ,       9.99700 ,     -84.2080
20070724T12:52:30 ,       9.99700 ,     -84.2070
20070724T12:52:31 ,       9.99700 ,     -84.2060
20070724T12:52:32 ,       9.99700 ,     -84.2060
20070724T12:52:33 ,       9.99800 ,     -84.2050
20070724T12:52:34 ,       9.99800 ,     -84.2040
20070724T12:52:35 ,       9.99800 ,     -84.2040
20070724T12:52:36 ,       9.99800 ,     -84.2030
20070724T12:52:37 ,       9.99900 ,     -84.2020
20070724T12:52:38 ,       9.99900 ,     -84.2010
20070724T12:52:39 ,       9.99900 ,     -84.2010
20070724T12:52:40 ,       10.0000 ,     -84.2000
20070724T12:52:41 ,       10.0000 ,     -84.1990
20070724T12:52:42 ,       10.0000 ,     -84.1990
20070724T12:52:43 ,       10.0000 ,     -84.1980
20070724T12:52:44 ,       10.0010 ,     -84.1970
20070724T12:52:45 ,       10.0010 ,     -84.1960
20070724T12:52:46 ,       10.0010 ,     -84.1960
20070724T12:52:47 ,       10.0010 ,     -84.1950
20070724T12:52:48 ,       10.0020 ,     -84.1940
20070724T12:52:49 ,       10.0020 ,     -84.1940
20070724T12:52:50 ,       10.0020 ,     -84.1930
20070724T12:52:51 ,       10.0020 ,     -84.1920
20070724T12:52:52 ,       10.0030 ,     -84.1910
20070724T12:52:53 ,       10.0030 ,     -84.1910
20070724T12:52:54 ,       10.0030 ,     -84.1900
20070724T12:52:55 ,       10.0030 ,     -84.1890
20070724T12:52:56 ,       10.0030 ,     -84.1880
20070724T12:52:57 ,       10.0040 ,     -84.1880
20070724T12:52:58 ,       10.0040 ,     -84.1870
20070724T12:52:59 ,       10.0040 ,     -84.1860
20070724T12:53:00 ,       10.0040 ,     -84.1850
20070724T12:53:01 ,       10.0050 ,     -84.1850
20070724T12:53:02 ,       10.0050 ,     -84.1840
20070724T12:53:03 ,       10.0050 ,     -84.1830
20070724T12:53:04 ,       10.0050 ,     -84.1820
20070724T12:53:05 ,       10.0060 ,     -84.1810
20070724T12:53:06 ,       10.0060 ,     -84.1810
20070724T12:53:07 ,       10.0060 ,     -84.1800
20070724T12:53:08 ,       10.0060 ,     -84.1790
20070724T12:53:09 ,       10.0060 ,     -84.1780
20070724T12:53:10 ,       10.0070 ,     -84.1770
20070724T12:53:11 ,       10.0070 ,     -84.1760
20070724T12:53:12 ,       10.0070 ,     -84.1760
20070724T12:53:13 ,       10.0070 ,     -84.1750
20070724T12:53:14 ,       10.0070 ,     -84.1740
20070724T12:53:15 ,       10.0070 ,     -84.1730
20070724T12:53:16 ,       10.0070 ,     -84.1720
20070724T12:53:17 ,       10.0070 ,     -84.1710
20070724T12:53:18 ,       10.0070 ,     -84.1710
20070724T12:53:19 ,       10.0070 ,     -84.1700
20070724T12:53:20 ,       10.0070 ,     -84.1690
20070724T12:53:21 ,       10.0070 ,     -84.1680
20070724T12:53:22 ,       10.0070 ,     -84.1670
20070724T12:53:23 ,       10.0070 ,     -84.1660
20070724T12:53:24 ,       10.0060 ,     -84.1660
20070724T12:53:25 ,       10.0060 ,     -84.1650
20070724T12:53:26 ,       10.0060 ,     -84.1640
20070724T12:53:27 ,       10.0050 ,     -84.1630
20070724T12:53:28 ,       10.0050 ,     -84.1620
20070724T12:53:29 ,       10.0050 ,     -84.1620
20070724T12:53:30 ,       10.0040 ,     -84.1610
20070724T12:53:31 ,       10.0040 ,     -84.1600
20070724T12:53:32 ,       10.0030 ,     -84.1600
20070724T12:53:33 ,       10.0030 ,     -84.1590
20070724T12:53:34 ,       10.0020 ,     -84.1580
20070724T12:53:35 ,       10.0010 ,     -84.1580
20070724T12:53:36 ,       10.0010 ,     -84.1570
20070724T12:53:37 ,       10.0000 ,     -84.1570
20070724T12:53:38 ,       9.99900 ,     -84.1560
20070724T12:53:39 ,       9.99900 ,     -84.1560
20070724T12:53:40 ,       9.99800 ,     -84.1550
20070724T12:53:41 ,       9.99700 ,     -84.1550
20070724T12:53:42 ,       9.99600 ,     -84.1540
20070724T12:53:43 ,       9.99600 ,     -84.1540
20070724T12:53:44 ,       9.99500 ,     -84.1540
20070724T12:53:45 ,       9.99400 ,     -84.1530
20070724T12:53:46 ,       9.99300 ,     -84.1530
20070724T12:53:47 ,       9.99200 ,     -84.1530
20070724T12:53:48 ,       9.99200 ,     -84.1530
20070724T12:53:49 ,       9.99100 ,     -84.1530
20070724T12:53:50 ,       9.99000 ,     -84.1530
20070724T12:53:51 ,       9.98900 ,     -84.1530
20070724T12:53:52 ,       9.98800 ,     -84.1530
20070724T12:53:53 ,       9.98700 ,     -84.1530
20070724T12:53:54 ,       9.98600 ,     -84.1530
20070724T12:53:55 ,       9.98600 ,     -84.1530
20070724T12:53:56 ,       9.98500 ,     -84.1530
20070724T12:53:57 ,       9.98400 ,     -84.1530
20070724T12:53:58 ,       9.98300 ,     -84.1530
20070724T12:53:59 ,       9.98200 ,     -84.1530
20070724T12:54:00 ,       9.98100 ,     -84.1540
20070724T12:54:01 ,       9.98100 ,     -84.1540
20070724T12:54:02 ,       9.98000 ,     -84.1540
20070724T12:54:03 ,       9.97900 ,     -84.1550
20070724T12:54:04 ,       9.97800 ,     -84.1550
20070724T12:54:05 ,       9.97700 ,     -84.1560
20070724T12:54:06 ,       9.97700 ,     -84.1560
20070724T12:54:07 ,       9.97600 ,     -84.1570
20070724T12:54:08 ,       9.97500 ,     -84.1570
20070724T12:54:09 ,       9.97500 ,     -84.1580
20070724T12:54:10 ,       9.97400 ,     -84.1590
20070724T12:54:11 ,       9.97300 ,     -84.1590
20070724T12:54:12 ,       9.97300 ,     -84.1600
20070724T12:54:13 ,       9.97200 ,     -84.1610
20070724T12:54:14 ,       9.97200 ,     -84.1610
20070724T12:54:15 ,       9.97100 ,     -84.1620
20070724T12:54:16 ,       9.97100 ,     -84.1630
20070724T12:54:17 ,       9.97000 ,     -84.1640
20070724T12:54:18 ,       9.97000 ,     -84.1650
20070724T12:54:19 ,       9.96900 ,     -84.1660
20070724T12:54:20 ,       9.96900 ,     -84.1660
20070724T12:54:21 ,       9.96900 ,     -84.1670
20070724T12:54:22 ,       9.96800 ,     -84.1680
20070724T12:54:23 ,       9.96800 ,     -84.1690
20070724T12:54:24 ,       9.96800 ,     -84.1700
20070724T12:54:25 ,       9.96800 ,     -84.1710
20070724T12:54:26 ,       9.96700 ,     -84.1720
20070724T12:54:27 ,       9.96700 ,     -84.1730
20070724T12:54:28 ,       9.96700 ,     -84.1740
20070724T12:54:29 ,       9.96700 ,     -84.1750
20070724T12:54:30 ,       9.96700 ,     -84.1760
20070724T12:54:31 ,       9.96700 ,     -84.1770
20070724T12:54:32 ,       9.96700 ,     -84.1790
20070724T12:54:33 ,       9.96700 ,     -84.1800
20070724T12:54:34 ,       9.96700 ,     -84.1810
20070724T12:54:35 ,       9.96700 ,     -84.1820
20070724T12:54:36 ,       9.96700 ,     -84.1830
20070724T12:54:37 ,       9.96700 ,     -84.1840
20070724T12:54:38 ,       9.96800 ,     -84.1850
20070724T12:54:39 ,       9.96800 ,     -84.1860
20070724T12:54:40 ,       9.96800 ,     -84.1870
20070724T12:54:41 ,       9.96800 ,     -84.1880
20070724T12:54:42 ,       9.96800 ,     -84.1890
20070724T12:54:43 ,       9.96900 ,     -84.1900
20070724T12:54:44 ,       9.96900 ,     -84.1920
20070724T12:54:45 ,       9.96900 ,     -84.1930
20070724T12:54:46 ,       9.96900 ,     -84.1940
20070724T12:54:47 ,       9.97000 ,     -84.1950
20070724T12:54:48 ,       9.97000 ,     -84.1960
20070724T12:54:49 ,       9.97000 ,     -84.1970
20070724T12:54:50 ,       9.97100 ,     -84.1980
20070724T12:54:51 ,       9.97100 ,     -84.1990
20070724T12:54:52 ,       9.97100 ,     -84.2000
20070724T12:54:53 ,       9.97200 ,     -84.2020
20070724T12:54:54 ,       9.97200 ,     -84.2030
20070724T12:54:55 ,       9.97200 ,     -84.2040
20070724T12:54:56 ,       9.97300 ,     -84.2050
20070724T12:54:57 ,       9.97300 ,     -84.2060
20070724T12:54:58 ,       9.97300 ,     -84.2070
20070724T12:54:59 ,       9.97400 ,     -84.2090
20070724T12:55:00 ,       9.97400 ,     -84.2100
20070724T12:55:01 ,       9.97400 ,     -84.2110
20070724T12:55:02 ,       9.97500 ,     -84.2120
20070724T12:55:03 ,       9.97500 ,     -84.2130
20070724T12:55:04 ,       9.97500 ,     -84.2150
20070724T12:55:05 ,       9.97500 ,     -84.2160
20070724T12:55:06 ,       9.97600 ,     -84.2170
20070724T12:55:07 ,       9.97600 ,     -84.2180
20070724T12:55:08 ,       9.97600 ,     -84.2190
20070724T12:55:09 ,       9.97700 ,     -84.2210
20070724T12:55:10 ,       9.97700 ,     -84.2220
20070724T12:55:11 ,       9.97700 ,     -84.2230
20070724T12:55:12 ,       9.97800 ,     -84.2240
20070724T12:55:13 ,       9.97800 ,     -84.2260
20070724T12:55:14 ,       9.97800 ,     -84.2270
20070724T12:55:15 ,       9.97800 ,     -84.2280
20070724T12:55:16 ,       9.97900 ,     -84.2290
20070724T12:55:17 ,       9.97900 ,     -84.2310
20070724T12:55:18 ,       9.97900 ,     -84.2320
20070724T12:55:19 ,       9.98000 ,     -84.2330
20070724T12:55:20 ,       9.98000 ,     -84.2340
20070724T12:55:21 ,       9.98000 ,     -84.2360
20070724T12:55:22 ,       9.98000 ,     -84.2370
20070724T12:55:23 ,       9.98100 ,     -84.2380
20070724T12:55:24 ,       9.98100 ,     -84.2390
20070724T12:55:25 ,       9.98100 ,     -84.2410
20070724T12:55:26 ,       9.98100 ,     -84.2420
20070724T12:55:27 ,       9.98200 ,     -84.2430
20070724T12:55:28 ,       9.98200 ,     -84.2450
20070724T12:55:29 ,       9.98200 ,     -84.2460
20070724T12:55:30 ,       9.98200 ,     -84.2470
20070724T12:55:31 ,       9.98200 ,     -84.2480
20070724T12:55:32 ,       9.98200 ,     -84.2500
20070724T12:55:33 ,       9.98300 ,     -84.2510
20070724T12:55:34 ,       9.98300 ,     -84.2520
20070724T12:55:35 ,       9.98300 ,     -84.2540
20070724T12:55:36 ,       9.98300 ,     -84.2550
20070724T12:55:37 ,       9.98300 ,     -84.2560
20070724T12:55:38 ,       9.98300 ,     -84.2580
20070724T12:55:39 ,       9.98300 ,     -84.2590
20070724T12:55:40 ,       9.98300 ,     -84.2600
20070724T12:55:41 ,       9.98300 ,     -84.2620
20070724T12:55:42 ,       9.98200 ,     -84.2630
20070724T12:55:43 ,       9.98200 ,     -84.2650
20070724T12:55:44 ,       9.98200 ,     -84.2660
20070724T12:55:45 ,       9.98200 ,     -84.2670
20070724T12:55:46 ,       9.98200 ,     -84.2690
20070724T12:55:47 ,       9.98100 ,     -84.2700
20070724T12:55:48 ,       9.98100 ,     -84.2710
20070724T12:55:49 ,       9.98000 ,     -84.2730
20070724T12:55:50 ,       9.98000 ,     -84.2740
20070724T12:55:51 ,       9.98000 ,     -84.2750
20070724T12:55:52 ,       9.97900 ,     -84.2770
20070724T12:55:53 ,       9.97900 ,     -84.2780
20070724T12:55:54 ,       9.97800 ,     -84.2790
20070724T12:55:55 ,       9.97700 ,     -84.2800
20070724T12:55:56 ,       9.97700 ,     -84.2820
20070724T12:55:57 ,       9.97600 ,     -84.2830
20070724T12:55:58 ,       9.97500 ,     -84.2840
20070724T12:55:59 ,       9.97500 ,     -84.2850
20070724T12:56:00 ,       9.97400 ,     -84.2870
20070724T12:56:01 ,       9.97300 ,     -84.2880
20070724T12:56:02 ,       9.97200 ,     -84.2890
20070724T12:56:03 ,       9.97100 ,     -84.2900
20070724T12:56:04 ,       9.97100 ,     -84.2910
20070724T12:56:05 ,       9.97000 ,     -84.2920
20070724T12:56:06 ,       9.96900 ,     -84.2930
20070724T12:56:07 ,       9.96800 ,     -84.2940
20070724T12:56:08 ,       9.96700 ,     -84.2950
20070724T12:56:09 ,       9.96600 ,     -84.2960
20070724T12:56:10 ,       9.96500 ,     -84.2970
20070724T12:56:11 ,       9.96400 ,     -84.2980
20070724T12:56:12 ,       9.96300 ,     -84.2990
20070724T12:56:13 ,       9.96200 ,     -84.3000
20070724T12:56:14 ,       9.96100 ,     -84.3010
20070724T12:56:15 ,       9.96000 ,     -84.3020
20070724T12:56:16 ,       9.95900 ,     -84.3030
20070724T12:56:17 ,       9.95800 ,     -84.3040
20070724T12:56:18 ,       9.95700 ,     -84.3050
20070724T12:56:19 ,       9.95600 ,     -84.3060
20070724T12:56:20 ,       9.95500 ,     -84.3070
20070724T12:56:21 ,       9.95300 ,     -84.3070
20070724T12:56:22 ,       9.95200 ,     -84.3080
20070724T12:56:23 ,       9.95100 ,     -84.3090
20070724T12:56:24 ,       9.95000 ,     -84.3100
20070724T12:56:25 ,       9.94900 ,     -84.3110
20070724T12:56:26 ,       9.94800 ,     -84.3120
20070724T12:56:27 ,       9.94700 ,     -84.3120
20070724T12:56:28 ,       9.94600 ,     -84.3130
20070724T12:56:29 ,       9.94500 ,     -84.3140
20070724T12:56:30 ,       9.94400 ,     -84.3150
20070724T12:56:31 ,       9.94200 ,     -84.3160
20070724T12:56:32 ,       9.94100 ,     -84.3170
20070724T12:56:33 ,       9.94000 ,     -84.3180
20070724T12:56:34 ,       9.93900 ,     -84.3180
20070724T12:56:35 ,       9.93800 ,     -84.3190
20070724T12:56:36 ,       9.93700 ,     -84.3200
20070724T12:56:37 ,       9.93600 ,     -84.3210
20070724T12:56:38 ,       9.93500 ,     -84.3220
20070724T12:56:39 ,       9.93300 ,     -84.3230
20070724T12:56:40 ,       9.93200 ,     -84.3230
20070724T12:56:41 ,       9.93100 ,     -84.3240
20070724T12:56:42 ,       9.93000 ,     -84.3250
20070724T12:56:43 ,       9.92900 ,     -84.3260
20070724T12:56:44 ,       9.92800 ,     -84.3270
20070724T12:56:45 ,       9.92700 ,     -84.3280
20070724T12:56:46 ,       9.92500 ,     -84.3280
20070724T12:56:47 ,       9.92400 ,     -84.3290
20070724T12:56:48 ,       9.92300 ,     -84.3300
20070724T12:56:49 ,       9.92200 ,     -84.3310
20070724T12:56:50 ,       9.92000 ,     -84.3310
20070724T12:56:51 ,       9.91900 ,     -84.3320
20070724T12:56:52 ,       9.91800 ,     -84.3330
20070724T12:56:53 ,       9.91700 ,     -84.3330
20070724T12:56:54 ,       9.91500 ,     -84.3340
20070724T12:56:55 ,       9.91400 ,     -84.3350
20070724T12:56:56 ,       9.91300 ,     -84.3350
20070724T12:56:57 ,       9.91200 ,     -84.3360
20070724T12:56:58 ,       9.91000 ,     -84.3370
20070724T12:56:59 ,       9.90900 ,     -84.3370
20070724T12:57:00 ,       9.90800 ,     -84.3380
20070724T12:57:01 ,       9.90600 ,     -84.3380
20070724T12:57:02 ,       9.90500 ,     -84.3390
20070724T12:57:03 ,       9.90400 ,     -84.3400
20070724T12:57:04 ,       9.90200 ,     -84.3400
20070724T12:57:05 ,       9.90100 ,     -84.3410
20070724T12:57:06 ,       9.90000 ,     -84.3410
20070724T12:57:07 ,       9.89800 ,     -84.3420
20070724T12:57:08 ,       9.89700 ,     -84.3420
20070724T12:57:09 ,       9.89600 ,     -84.3420
20070724T12:57:10 ,       9.89400 ,     -84.3430
20070724T12:57:11 ,       9.89300 ,     -84.3430
20070724T12:57:12 ,       9.89200 ,     -84.3440
20070724T12:57:13 ,       9.89000 ,     -84.3440
20070724T12:57:14 ,       9.88900 ,     -84.3440
20070724T12:57:15 ,       9.88700 ,     -84.3450
20070724T12:57:16 ,       9.88600 ,     -84.3450
20070724T12:57:17 ,       9.88500 ,     -84.3450
20070724T12:57:18 ,       9.88300 ,     -84.3450
20070724T12:57:19 ,       9.88200 ,     -84.3460
20070724T12:57:20 ,       9.88000 ,     -84.3460
20070724T12:57:21 ,       9.87900 ,     -84.3460
20070724T12:57:22 ,       9.87800 ,     -84.3460
20070724T12:57:23 ,       9.87600 ,     -84.3460
20070724T12:57:24 ,       9.87500 ,     -84.3460
20070724T12:57:25 ,       9.87300 ,     -84.3470
20070724T12:57:26 ,       9.87200 ,     -84.3470
20070724T12:57:27 ,       9.87000 ,     -84.3470
20070724T12:57:28 ,       9.86900 ,     -84.3470
20070724T12:57:29 ,       9.86800 ,     -84.3470
20070724T12:57:30 ,       9.86600 ,     -84.3470
20070724T12:57:31 ,       9.86500 ,     -84.3470
20070724T12:57:32 ,       9.86300 ,     -84.3470
20070724T12:57:33 ,       9.86200 ,     -84.3470
20070724T12:57:34 ,       9.86000 ,     -84.3470
20070724T12:57:35 ,       9.85900 ,     -84.3470
20070724T12:57:36 ,       9.85800 ,     -84.3470
20070724T12:57:37 ,       9.85600 ,     -84.3470
20070724T12:57:38 ,       9.85500 ,     -84.3470
20070724T12:57:39 ,       9.85300 ,     -84.3470
20070724T12:57:40 ,       9.85200 ,     -84.3470
20070724T12:57:41 ,       9.85000 ,     -84.3470
20070724T12:57:42 ,       9.84900 ,     -84.3470
20070724T12:57:43 ,       9.84800 ,     -84.3480
20070724T12:57:44 ,       9.84600 ,     -84.3480
20070724T12:57:45 ,       9.84500 ,     -84.3480
20070724T12:57:46 ,       9.84300 ,     -84.3480
20070724T12:57:47 ,       9.84200 ,     -84.3480
20070724T12:57:48 ,       9.84000 ,     -84.3480
20070724T12:57:49 ,       9.83900 ,     -84.3480
20070724T12:57:50 ,       9.83700 ,     -84.3480
20070724T12:57:51 ,       9.83600 ,     -84.3480
20070724T12:57:52 ,       9.83500 ,     -84.3480
20070724T12:57:53 ,       9.83300 ,     -84.3480
20070724T12:57:54 ,       9.83200 ,     -84.3480
20070724T12:57:55 ,       9.83000 ,     -84.3480
20070724T12:57:56 ,       9.82900 ,     -84.3480
20070724T12:57:57 ,       9.82700 ,     -84.3480
20070724T12:57:58 ,       9.82600 ,     -84.3480
20070724T12:57:59 ,       9.82500 ,     -84.3480
20070724T12:58:00 ,       9.82300 ,     -84.3480
20070724T12:58:01 ,       9.82200 ,     -84.3480
20070724T12:58:02 ,       9.82000 ,     -84.3480
20070724T12:58:03 ,       9.81900 ,     -84.3480
20070724T12:58:04 ,       9.81700 ,     -84.3480
20070724T12:58:05 ,       9.81600 ,     -84.3480
20070724T12:58:06 ,       9.81500 ,     -84.3480
20070724T12:58:07 ,       9.81300 ,     -84.3480
20070724T12:58:08 ,       9.81200 ,     -84.3480
20070724T12:58:09 ,       9.81000 ,     -84.3480
20070724T12:58:10 ,       9.80900 ,     -84.3480
20070724T12:58:11 ,       9.80700 ,     -84.3480
20070724T12:58:12 ,       9.80600 ,     -84.3480
20070724T12:58:13 ,       9.80500 ,     -84.3480
20070724T12:58:14 ,       9.80300 ,     -84.3480
20070724T12:58:15 ,       9.80200 ,     -84.3480
20070724T12:58:16 ,       9.80000 ,     -84.3480
20070724T12:58:17 ,       9.79900 ,     -84.3480
20070724T12:58:18 ,       9.79700 ,     -84.3480
20070724T12:58:19 ,       9.79600 ,     -84.3480
20070724T12:58:20 ,       9.79500 ,     -84.3480
20070724T12:58:21 ,       9.79300 ,     -84.3480
20070724T12:58:22 ,       9.79200 ,     -84.3480
20070724T12:58:23 ,       9.79000 ,     -84.3480
20070724T12:58:24 ,       9.78900 ,     -84.3480
20070724T12:58:25 ,       9.78700 ,     -84.3480
20070724T12:58:26 ,       9.78600 ,     -84.3480
20070724T12:58:27 ,       9.78400 ,     -84.3480
20070724T12:58:28 ,       9.78300 ,     -84.3480
20070724T12:58:29 ,       9.78200 ,     -84.3480
20070724T12:58:30 ,       9.78000 ,     -84.3480
20070724T12:58:31 ,       9.77900 ,     -84.3480
20070724T12:58:32 ,       9.77700 ,     -84.3480
20070724T12:58:33 ,       9.77600 ,     -84.3480
20070724T12:58:34 ,       9.77400 ,     -84.3480
20070724T12:58:35 ,       9.77300 ,     -84.3480
20070724T12:58:36 ,       9.77100 ,     -84.3480
20070724T12:58:37 ,       9.77000 ,     -84.3480
20070724T12:58:38 ,       9.76800 ,     -84.3480
20070724T12:58:39 ,       9.76700 ,     -84.3480
20070724T12:58:40 ,       9.76500 ,     -84.3480
20070724T12:58:41 ,       9.76400 ,     -84.3480
20070724T12:58:42 ,       9.76300 ,     -84.3480
20070724T12:58:43 ,       9.76100 ,     -84.3480
20070724T12:58:44 ,       9.76000 ,     -84.3480
20070724T12:58:45 ,       9.75800 ,     -84.3480
20070724T12:58:46 ,       9.75700 ,     -84.3480
20070724T12:58:47 ,       9.75500 ,     -84.3480
20070724T12:58:48 ,       9.75400 ,     -84.3470
20070724T12:58:49 ,       9.75200 ,     -84.3470
20070724T12:58:50 ,       9.75100 ,     -84.3470
20070724T12:58:51 ,       9.74900 ,     -84.3470
20070724T12:58:52 ,       9.74800 ,     -84.3470
20070724T12:58:53 ,       9.74600 ,     -84.3470
20070724T12:58:54 ,       9.74500 ,     -84.3470
20070724T12:58:55 ,       9.74400 ,     -84.3470
20070724T12:58:56 ,       9.74200 ,     -84.3470
20070724T12:58:57 ,       9.74100 ,     -84.3470
20070724T12:58:58 ,       9.73900 ,     -84.3470
20070724T12:58:59 ,       9.73800 ,     -84.3470
20070724T12:59:00 ,       9.73600 ,     -84.3470
20070724T12:59:01 ,       9.73500 ,     -84.3470
20070724T12:59:02 ,       9.73300 ,     -84.3470
20070724T12:59:03 ,       9.73200 ,     -84.3470
20070724T12:59:04 ,       9.73000 ,     -84.3470
20070724T12:59:05 ,       9.72900 ,     -84.3470
20070724T12:59:06 ,       9.72700 ,     -84.3470
20070724T12:59:07 ,       9.72600 ,     -84.3470
20070724T12:59:08 ,       9.72400 ,     -84.3470
20070724T12:59:09 ,       9.72300 ,     -84.3470
20070724T12:59:10 ,       9.72100 ,     -84.3470
20070724T12:59:11 ,       9.72000 ,     -84.3470
20070724T12:59:12 ,       9.71800 ,     -84.3470
20070724T12:59:13 ,       9.71700 ,     -84.3470
20070724T12:59:14 ,       9.71500 ,     -84.3470
20070724T12:59:15 ,       9.71400 ,     -84.3470
20070724T12:59:16 ,       9.71200 ,     -84.3470
20070724T12:59:17 ,       9.71100 ,     -84.3470
20070724T12:59:18 ,       9.70900 ,     -84.3470
20070724T12:59:19 ,       9.70800 ,     -84.3470
20070724T12:59:20 ,       9.70600 ,     -84.3470
20070724T12:59:21 ,       9.70500 ,     -84.3470
20070724T12:59:22 ,       9.70300 ,     -84.3470
20070724T12:59:23 ,       9.70200 ,     -84.3470
20070724T12:59:24 ,       9.70000 ,     -84.3460
20070724T12:59:25 ,       9.69900 ,     -84.3460
20070724T12:59:26 ,       9.69700 ,     -84.3460
20070724T12:59:27 ,       9.69600 ,     -84.3460
20070724T12:59:28 ,       9.69400 ,     -84.3460
20070724T12:59:29 ,       9.69300 ,     -84.3460
20070724T12:59:30 ,       9.69100 ,     -84.3460
20070724T12:59:31 ,       9.69000 ,     -84.3460
20070724T12:59:32 ,       9.68800 ,     -84.3460
20070724T12:59:33 ,       9.68700 ,     -84.3460
20070724T12:59:34 ,       9.68500 ,     -84.3450
20070724T12:59:35 ,       9.68400 ,     -84.3450
20070724T12:59:36 ,       9.68200 ,     -84.3450
20070724T12:59:37 ,       9.68100 ,     -84.3450
20070724T12:59:38 ,       9.67900 ,     -84.3450
20070724T12:59:39 ,       9.67700 ,     -84.3450
20070724T12:59:40 ,       9.67600 ,     -84.3450
20070724T12:59:41 ,       9.67400 ,     -84.3450
20070724T12:59:42 ,       9.67300 ,     -84.3450
20070724T12:59:43 ,       9.67100 ,     -84.3440
20070724T12:59:44 ,       9.67000 ,     -84.3440
20070724T12:59:45 ,       9.66800 ,     -84.3440
20070724T12:59:46 ,       9.66700 ,     -84.3440
20070724T12:59:47 ,       9.66500 ,     -84.3440
20070724T12:59:48 ,       9.66400 ,     -84.3440
20070724T12:59:49 ,       9.66200 ,     -84.3440
20070724T12:59:50 ,       9.66100 ,     -84.3430
20070724T12:59:51 ,       9.65900 ,     -84.3430
20070724T12:59:52 ,       9.65800 ,     -84.3430
20070724T12:59:53 ,       9.65600 ,     -84.3430
20070724T12:59:54 ,       9.65400 ,     -84.3430
20070724T12:59:55 ,       9.65300 ,     -84.3430
20070724T12:59:56 ,       9.65100 ,     -84.3430
20070724T12:59:57 ,       9.65000 ,     -84.3420
20070724T12:59:58 ,       9.64800 ,     -84.3420
20070724T12:59:59 ,       9.64700 ,     -84.3420
20070724T13:00:00 ,       9.64500 ,     -84.3420
20070724T13:00:01 ,       9.64400 ,     -84.3420
20070724T13:00:02 ,       9.64200 ,     -84.3420
20070724T13:00:03 ,       9.64000 ,     -84.3420
20070724T13:00:04 ,       9.63900 ,     -84.3410
20070724T13:00:05 ,       9.63700 ,     -84.3410
20070724T13:00:06 ,       9.63600 ,     -84.3410
20070724T13:00:07 ,       9.63400 ,     -84.3410
20070724T13:00:08 ,       9.63300 ,     -84.3410
20070724T13:00:09 ,       9.63100 ,     -84.3410
20070724T13:00:10 ,       9.62900 ,     -84.3410
20070724T13:00:11 ,       9.62800 ,     -84.3400
20070724T13:00:12 ,       9.62600 ,     -84.3400
20070724T13:00:13 ,       9.62500 ,     -84.3400
20070724T13:00:14 ,       9.62300 ,     -84.3400
20070724T13:00:15 ,       9.62100 ,     -84.3400
20070724T13:00:16 ,       9.62000 ,     -84.3400
20070724T13:00:17 ,       9.61800 ,     -84.3390
20070724T13:00:18 ,       9.61700 ,     -84.3390
20070724T13:00:19 ,       9.61500 ,     -84.3390
20070724T13:00:20 ,       9.61300 ,     -84.3390
20070724T13:00:21 ,       9.61200 ,     -84.3390
20070724T13:00:22 ,       9.61000 ,     -84.3390
20070724T13:00:23 ,       9.60900 ,     -84.3390
20070724T13:00:24 ,       9.60700 ,     -84.3380
20070724T13:00:25 ,       9.60500 ,     -84.3380
20070724T13:00:26 ,       9.60400 ,     -84.3380
20070724T13:00:27 ,       9.60200 ,     -84.3380
20070724T13:00:28 ,       9.60000 ,     -84.3380
20070724T13:00:29 ,       9.59900 ,     -84.3380
20070724T13:00:30 ,       9.59700 ,     -84.3370
20070724T13:00:31 ,       9.59600 ,     -84.3370
20070724T13:00:32 ,       9.59400 ,     -84.3370
20070724T13:00:33 ,       9.59200 ,     -84.3370
20070724T13:00:34 ,       9.59100 ,     -84.3370
20070724T13:00:35 ,       9.58900 ,     -84.3370
20070724T13:00:36 ,       9.58700 ,     -84.3360
20070724T13:00:37 ,       9.58600 ,     -84.3360